Location: Holkham
(52.9500°N, 0.8167°E)
Time: 05:36:53
(UTC+00:00)

KORONAS-FOTON - Pass Details

Date: 19 May 2025
Orbit: 447 x 464 km, 82.4° (Epoch: 13 June)

Event Time Altitude Azimuth Distance (km) Brightness Sun altitude
Exits shadow 23:19:44 42° 185° (S) 673 3.9 -16.7°
Maximum altitude 23:20:50 85° 99° (E) 467 3.4 -16.7°
Drops below altitude 10° 23:24:21 10° 12° (NNE) 1,606 7.4 -16.8°
Sets 23:26:25 0° 12° (NNE) 2,481 8.7 -16.8°
